User: anonymous   Login
Location: Buena Vista
(37.7110°N, 119.7938°W)
Time: 16:52:57
(UTC+00:00)
Language:

KKS-1 - Orbit

View from above orbital plane
View from above orbital plane
View from above satellite
View from above satellite

Ground track
Ground track

The orbit data is extracted from the following two-line orbital elements,

1 33499U 09002H   24280.83378400  .00007729  00000-0  10347-2 0  9990
2 33499  98.1259 183.7279 0009719 123.6628 236.5511 14.79695811845051
Epoch (UTC): 06 October 2024 20:00:38
Eccentricity: 0.0009719
inclination: 98.1259°
perigee height: 623 km
apogee height: 637 km
right ascension of ascending node: 183.7279°
argument of perigee: 123.6628°
revolutions per day: 14.79695811
mean anomaly at epoch: 236.5511°
orbit number at epoch: 84505

The dashed part of the orbit path shows where the satellite is in the earth's shadow,  

DLR